DateTimeUTC,F1_A11,F1_S11,BsB_S11,BsG_S11,BsR_S11,BbsB_S11,BbsG_S11,BbsR_S11,BaB_A11,BaG_A11,BaR_A11,Tu_S11,T_S11,Uu_S11,U_S11,P_S11,T1_A11
2021-02-17T04:00:00Z,00000200,21000000,,,,,,,0000.30,-000.03,0000.05,16.5,23.3,,00.0,0633.7,31.0
2021-02-17T04:01:00Z,00000200,21000000,,,,,,,0000.05,0000.24,-000.03,16.5,23.3,,00.0,0633.7,31.0
2021-02-17T04:02:00Z,00000200,21000000,,,,,,,0000.04,0000.41,-000.04,16.5,23.3,,00.0,0633.7,31.0
2021-02-17T04:03:00Z,00000200,61000000,,,,,,,0000.32,0000.04,0000.70,16.5,23.3,,00.0,0633.7,31.0
2021-02-17T04:04:00Z,00000200,41000000,0000.65,0000.31,0000.36,0000.35,-000.39,-000.08,0000.23,-000.09,-000.21,16.6,23.1,,00.0,0634.6,31.0
2021-02-17T04:05:00Z,00000200,01000000,0000.43,-000.02,0000.20,0000.68,-000.04,0000.21,0000.37,0000.52,0000.13,16.7,23.0,,00.0,0634.7,31.0
2021-02-17T04:06:00Z,00000200,01000000,-000.16,0000.26,-000.08,-000.03,0000.15,-000.09,0000.05,0000.08,0000.30,16.8,23.0,,00.0,0634.8,31.0
2021-02-17T04:07:00Z,00000200,01000000,0000.42,0000.22,0000.15,0000.47,-000.24,0000.19,-000.08,0000.04,0000.24,16.9,23.1,,00.0,0634.8,31.0
2021-02-17T04:08:00Z,00000200,01000000,-000.23,0000.32,0000.28,-000.25,-000.04,0000.14,0000.06,-000.04,-000.49,17.0,23.1,,00.0,0634.8,31.0
2021-02-17T04:09:00Z,00000200,01000000,0000.26,-000.07,0000.05,0000.13,-000.09,-000.15,0000.07,-000.02,0000.23,17.0,23.1,,00.0,0634.8,31.0
2021-02-17T04:10:00Z,00000200,01000000,0000.43,0000.16,0000.09,-000.19,-000.20,0000.09,0000.20,0000.10,-000.02,17.0,23.2,,00.0,0634.8,31.0
2021-02-17T04:11:00Z,00000200,01000000,-000.18,0000.14,0000.29,-000.24,-000.19,0000.12,-000.18,0000.03,0000.16,17.0,23.1,,00.0,0634.8,31.0
2021-02-17T04:12:00Z,00000200,01000000,-000.51,0000.20,-000.17,0000.37,0000.05,0000.12,0000.05,0000.20,-000.26,17.0,23.2,,00.0,0634.9,31.0
2021-02-17T04:13:00Z,00000200,01000000,0000.11,0000.40,-000.19,-000.00,-000.12,-000.28,-000.09,-000.10,-000.25,17.0,23.2,,00.0,0634.8,31.0
2021-02-17T04:14:00Z,00000200,01000000,-001.02,-000.04,0000.09,-000.11,0000.07,-000.18,0000.18,-000.14,0000.43,17.0,23.1,,00.0,0634.8,31.0
2021-02-17T04:15:00Z,00000200,01000000,0000.03,0000.05,0000.28,0000.40,0000.13,0000.02,-000.10,0000.14,-000.16,16.9,23.1,,00.0,0634.9,31.0
2021-02-17T04:16:00Z,00000200,01000000,-000.07,0000.14,0000.23,-000.01,-000.06,0000.30,0000.03,-000.18,-000.02,16.9,23.1,,00.0,0634.9,31.0
2021-02-17T04:17:00Z,00000200,01000000,0000.08,0000.11,0000.22,0000.24,0000.02,-000.01,-000.17,0000.03,-000.10,16.9,23.1,,00.0,0634.9,31.0
2021-02-17T04:18:00Z,00000200,01000000,-000.27,0000.05,0000.06,0000.10,-000.03,0000.16,-000.09,0000.13,0000.26,16.9,23.1,,00.0,0634.9,31.0
2021-02-17T04:19:00Z,00000200,01000000,-000.27,0000.21,-000.14,0000.42,-000.29,-000.06,0000.05,-000.36,-000.35,16.9,23.1,,00.0,0635.0,31.0
2021-02-17T04:20:00Z,00000200,01000000,0000.37,0000.22,0000.17,-000.31,0000.09,0000.19,0000.01,0000.18,0000.21,16.9,23.1,,00.0,0635.0,31.0
2021-02-17T04:21:00Z,00000200,01000000,0000.41,-000.32,-000.17,0000.03,0000.12,-000.10,-000.23,-000.26,-000.20,16.9,23.1,,00.0,0635.0,31.0
2021-02-17T04:22:00Z,00000200,01000000,0000.37,-000.12,-000.10,0000.47,0000.07,-000.06,0000.18,0000.39,-000.01,16.9,23.1,,00.0,0635.0,31.0
2021-02-17T04:23:00Z,00000200,01000000,0000.75,0000.05,0000.06,0000.18,0000.20,-000.07,-000.30,-000.27,-000.01,16.9,23.1,,00.0,0635.0,31.0
2021-02-17T04:24:00Z,00000200,01000000,0000.30,0000.13,-000.03,0000.52,-000.24,0000.15,0000.02,-000.11,-000.17,16.9,23.1,,00.0,0635.1,31.0
2021-02-17T04:25:00Z,00000200,01000000,0000.34,0000.02,0000.10,-000.04,0000.00,0000.22,-000.10,-000.13,-000.08,16.9,23.1,,00.0,0635.1,31.0
2021-02-17T04:26:00Z,00000200,01000000,0000.02,-000.20,0000.08,0000.04,-000.01,0000.12,-000.36,-000.23,-000.15,16.9,23.1,,00.0,0635.1,31.0
2021-02-17T04:27:00Z,00000200,01000000,0000.42,-000.19,0000.05,0000.23,-000.02,-000.03,-000.08,-000.35,0000.17,16.9,23.1,,00.0,0635.2,31.0
2021-02-17T04:28:00Z,00000200,01000000,-000.37,0000.32,0000.27,-000.08,-000.09,0000.21,0000.02,-000.11,-000.35,16.8,23.0,,00.0,0635.2,31.0
2021-02-17T04:29:00Z,00000200,01000000,0000.51,-000.02,0000.20,-000.11,-000.14,0000.06,-000.38,0000.18,0000.06,16.8,23.1,,00.0,0635.2,31.0
2021-02-17T04:30:00Z,00000200,01000000,-000.01,0000.02,-000.15,-000.25,0000.19,-000.02,-000.01,-000.33,-000.13,16.8,23.0,,00.0,0635.3,31.0
2021-02-17T04:31:00Z,00000200,01000000,0000.18,-000.06,0000.01,0000.62,0000.02,0000.06,-000.41,-000.14,-000.41,16.8,23.0,,00.0,0635.3,31.0
2021-02-17T04:32:00Z,00000200,01000000,0000.04,0000.15,0000.03,0000.06,0000.07,0000.27,0000.06,0000.11,-000.27,16.7,23.0,,00.0,0635.3,31.0
2021-02-17T04:33:00Z,00000200,01000000,-000.03,-000.14,0000.07,-000.58,0000.14,0000.25,-000.19,-000.32,0000.15,16.7,23.0,,00.0,0635.3,31.0
2021-02-17T04:34:00Z,00000200,01000000,0000.45,0000.34,-000.01,0000.61,0000.01,-000.40,0000.14,-000.31,0000.15,16.7,23.0,,00.0,0635.3,31.0
2021-02-17T04:35:00Z,00000200,01000000,-000.24,-000.06,0000.07,-000.07,-000.10,0000.07,-000.16,-000.05,-000.10,16.7,23.0,,00.0,0635.3,31.0
2021-02-17T04:36:00Z,00000200,01000000,-000.29,0000.29,0000.05,-000.10,-000.02,0000.28,0000.07,0000.29,0000.12,16.8,23.0,,00.0,0635.3,31.0
2021-02-17T04:37:00Z,00000200,01000000,-000.47,-000.10,0000.27,0000.46,0000.04,0000.41,0000.10,0000.24,-000.09,16.9,23.0,,00.0,0635.3,31.0
2021-02-17T04:38:00Z,00000200,01000000,-000.05,0000.32,-000.27,0000.28,0000.03,-000.03,-000.14,-000.43,-000.05,16.9,23.1,,00.0,0635.3,31.0
2021-02-17T04:39:00Z,00000200,01000000,0000.06,0000.22,-000.07,-000.48,0000.19,-000.06,-000.28,0000.02,0000.03,17.0,23.1,,00.0,0635.3,31.0
2021-02-17T04:40:00Z,00000200,01000000,0000.58,0000.05,0000.40,-000.30,-000.01,0000.45,-000.06,-000.07,-000.02,16.9,23.1,,00.0,0635.3,31.0
2021-02-17T04:41:00Z,00000200,01000000,0000.29,0000.04,0000.06,0000.41,-000.09,-000.18,-000.34,-000.11,-000.23,16.9,23.1,,00.0,0635.4,31.0
2021-02-17T04:42:00Z,00000200,01000000,0000.79,0000.15,-000.10,-000.13,0000.20,0000.27,-000.19,-000.29,-000.19,16.9,23.1,,00.0,0635.4,31.0
2021-02-17T04:43:00Z,00000200,01000000,-000.02,0000.16,0000.20,0000.59,-000.21,0000.06,0000.39,0000.27,0000.02,16.9,23.0,,00.0,0635.4,31.0
2021-02-17T04:44:00Z,00000200,01000000,-000.03,0000.18,0000.36,0000.25,0000.04,0000.19,-000.20,-000.12,-000.24,16.8,23.0,,00.0,0635.4,31.0
2021-02-17T04:45:00Z,00000200,01000000,0000.01,-000.04,0000.27,0000.02,-000.05,0000.02,0000.01,-000.09,0000.17,16.8,23.0,,00.0,0635.4,31.0
2021-02-17T04:46:00Z,00000200,01000000,-000.04,0000.24,0000.22,0000.29,0000.01,0000.01,-000.09,-000.12,-000.09,16.8,23.0,,00.0,0635.5,31.0
2021-02-17T04:47:00Z,00000200,01000000,0000.47,0000.14,0000.01,0000.16,0000.02,0000.25,-000.16,-000.26,-000.23,16.8,23.0,,00.0,0635.5,31.0
2021-02-17T04:48:00Z,00000200,01000000,-000.05,-000.03,0000.25,0000.44,-000.14,-000.09,0000.28,0000.24,0000.09,16.7,23.0,,00.0,0635.5,31.0
2021-02-17T04:49:00Z,00000200,01000000,-000.00,-000.17,0000.10,0000.48,0000.04,0000.08,0000.03,-000.01,0000.32,16.7,23.0,,00.0,0635.5,31.0
2021-02-17T04:50:00Z,00000200,01000000,0000.29,0000.03,0000.14,-000.36,-000.08,-000.08,0000.35,0000.25,0000.22,16.7,23.0,,00.0,0635.5,31.0
2021-02-17T04:51:00Z,00000200,01000000,0000.18,0000.15,-000.06,0000.11,-000.02,0000.09,-000.12,-000.08,0000.02,16.8,23.0,,00.0,0635.5,31.0
2021-02-17T04:52:00Z,00000200,01000000,-000.31,0000.02,0000.18,0000.28,-000.05,0000.13,-000.23,-000.05,-000.07,16.9,23.0,,00.0,0635.5,31.0
2021-02-17T04:53:00Z,00000200,01000000,-000.09,0000.39,0000.01,-000.31,0000.34,-000.03,0000.16,0000.49,0000.09,16.9,23.0,,00.0,0635.5,31.0
2021-02-17T04:54:00Z,00000200,01000000,0000.31,0000.21,0000.08,-000.27,0000.14,-000.07,-000.01,-000.16,-000.05,16.9,23.1,,00.0,0635.4,31.0
2021-02-17T04:55:00Z,00000200,01000000,0000.56,-000.17,0000.02,0000.01,-000.02,0000.16,0000.19,0000.09,-000.10,16.9,23.0,,00.0,0635.5,31.0
2021-02-17T04:56:00Z,00000200,01000000,0000.70,0000.17,0000.07,0000.17,-000.04,0000.08,-000.51,-000.27,-000.00,16.9,23.0,,00.0,0635.5,31.0
2021-02-17T04:57:00Z,00000200,41000000,,,,,,,0001.23,0000.95,0000.77,16.9,23.1,,00.0,0635.6,31.0
2021-02-17T04:58:00Z,00000200,61000000,,,,,,,-000.30,-000.35,-000.56,16.5,23.2,,00.0,0634.6,31.0
2021-02-17T04:59:00Z,00000200,21000000,,,,,,,-000.56,-000.33,-000.21,16.5,23.3,,00.0,0634.6,31.0
